�������l�o���
Date,Time,MP-1(��Sv/h),MP-2(��Sv/h),MP-3(��Sv/h),MP-4(��Sv/h),MP-5(��Sv/h),MP-6(��Sv/h),MP-7(��Sv/h),MP-8(��Sv/h),����,����(m/s),���J
2023/10/05,00:00,0.513,0.782,0.482,0.975,0.694,0.317,0.563,0.527,�쐼,3.1,��
2023/10/05,00:10,0.514,0.779,0.483,0.972,0.696,0.316,0.563,0.527,�쐼,3.7,��
2023/10/05,00:20,0.515,0.781,0.482,0.973,0.696,0.316,0.564,0.528,�쐼,3.3,��
2023/10/05,00:30,0.514,0.779,0.485,0.975,0.694,0.317,0.565,0.527,��쐼,3.5,��
2023/10/05,00:40,0.512,0.782,0.482,0.974,0.696,0.319,0.565,0.528,�쐼,3.6,��
2023/10/05,00:50,0.513,0.781,0.482,0.974,0.696,0.319,0.565,0.529,�쐼,3.4,��
2023/10/05,01:00,0.512,0.780,0.485,0.973,0.697,0.317,0.565,0.527,��쐼,3.7,��
2023/10/05,01:10,0.515,0.780,0.483,0.972,0.696,0.318,0.565,0.529,��,4.0,��
2023/10/05,01:20,0.514,0.781,0.484,0.974,0.697,0.318,0.566,0.528,��,3.3,��
2023/10/05,01:30,0.515,0.782,0.483,0.973,0.696,0.318,0.567,0.527,��쓌,4.0,��
2023/10/05,01:40,0.514,0.783,0.484,0.972,0.697,0.318,0.565,0.527,��,3.5,��
2023/10/05,01:50,0.513,0.782,0.485,0.974,0.696,0.317,0.566,0.527,��,4.1,��
2023/10/05,02:00,0.514,0.781,0.484,0.974,0.694,0.317,0.565,0.528,��,5.1,��
2023/10/05,02:10,0.513,0.780,0.485,0.974,0.697,0.318,0.566,0.528,��쐼,4.1,��
2023/10/05,02:20,0.515,0.783,0.483,0.974,0.697,0.318,0.566,0.528,��쐼,2.8,��
2023/10/05,02:30,0.514,0.782,0.483,0.972,0.698,0.318,0.566,0.528,��,3.2,��
2023/10/05,02:40,0.514,0.781,0.484,0.973,0.695,0.318,0.566,0.527,��,4.6,��
2023/10/05,02:50,0.513,0.782,0.484,0.972,0.697,0.318,0.566,0.529,��,4.8,��
2023/10/05,03:00,0.515,0.780,0.483,0.973,0.696,0.319,0.565,0.528,��,5.4,��
2023/10/05,03:10,0.514,0.781,0.485,0.976,0.695,0.319,0.564,0.528,��,3.7,��
2023/10/05,03:20,0.514,0.781,0.484,0.973,0.697,0.318,0.565,0.529,��쐼,3.9,��
2023/10/05,03:30,0.514,0.783,0.484,0.974,0.696,0.319,0.565,0.530,��,4.2,��
2023/10/05,03:40,0.514,0.781,0.485,0.974,0.699,0.318,0.567,0.529,��쐼,3.3,��
2023/10/05,03:50,0.514,0.782,0.484,0.973,0.698,0.318,0.566,0.529,��쐼,2.0,��
2023/10/05,04:00,0.515,0.781,0.483,0.977,0.697,0.318,0.567,0.529,��쐼,1.2,��
2023/10/05,04:10,0.514,0.782,0.484,0.975,0.696,0.318,0.567,0.529,���쐼,0.8,��
2023/10/05,04:20,0.515,0.781,0.483,0.973,0.695,0.319,0.566,0.529,-,CALM,��
2023/10/05,04:30,0.515,0.783,0.485,0.974,0.697,0.319,0.567,0.530,�k��,0.8,��
2023/10/05,04:40,0.516,0.781,0.484,0.973,0.697,0.319,0.566,0.530,�k,1.5,��
2023/10/05,04:50,0.514,0.782,0.483,0.974,0.697,0.319,0.566,0.528,�k�k��,2.6,��
2023/10/05,05:00,0.515,0.781,0.483,0.973,0.698,0.318,0.567,0.530,�k��,3.2,��
2023/10/05,05:10,0.516,0.781,0.482,0.973,0.697,0.318,0.566,0.530,�k��,3.6,��
2023/10/05,05:20,0.514,0.783,0.485,0.974,0.698,0.318,0.566,0.530,�k��,3.1,��
2023/10/05,05:30,0.515,0.783,0.486,0.973,0.699,0.319,0.566,0.530,���쐼,0.9,��
2023/10/05,05:40,0.514,0.782,0.484,0.976,0.697,0.320,0.566,0.529,�k��,2.6,�L
2023/10/05,05:50,0.515,0.783,0.484,0.975,0.698,0.319,0.566,0.529,�k��,2.5,�L
2023/10/05,06:00,0.515,0.782,0.485,0.975,0.699,0.320,0.566,0.529,�k,2.3,��
2023/10/05,06:10,0.515,0.783,0.485,0.975,0.698,0.319,0.566,0.529,�k�k��,0.9,�L
2023/10/05,06:20,0.515,0.782,0.484,0.975,0.698,0.320,0.568,0.529,-,CALM,��
2023/10/05,06:30,0.516,0.784,0.486,0.975,0.700,0.319,0.568,0.529,�k��,0.9,��
2023/10/05,06:40,0.515,0.781,0.482,0.977,0.698,0.319,0.568,0.529,���쐼,1.2,��
2023/10/05,06:50,0.515,0.782,0.485,0.973,0.698,0.318,0.566,0.529,�k��,1.2,��
2023/10/05,07:00,0.515,0.781,0.484,0.976,0.698,0.320,0.567,0.529,�k��,1.7,��
2023/10/05,07:10,0.515,0.783,0.483,0.977,0.699,0.317,0.567,0.529,�k��,2.3,��
2023/10/05,07:20,0.515,0.783,0.484,0.976,0.698,0.319,0.567,0.531,���k��,4.3,��
2023/10/05,07:30,0.516,0.784,0.486,0.975,0.698,0.318,0.568,0.529,���k��,4.2,��
2023/10/05,07:40,0.516,0.782,0.485,0.974,0.698,0.318,0.567,0.529,���k��,4.3,��
2023/10/05,07:50,0.515,0.782,0.485,0.975,0.698,0.318,0.567,0.528,�k��,6.2,��
2023/10/05,08:00,0.514,0.783,0.484,0.978,0.697,0.318,0.567,0.529,���k��,7.6,��
2023/10/05,08:10,0.515,0.780,0.484,0.975,0.698,0.317,0.569,0.530,���k��,6.9,��
2023/10/05,08:20,0.515,0.784,0.485,0.977,0.699,0.320,0.567,0.529,�k��,5.7,��
2023/10/05,08:30,0.517,0.783,0.484,0.978,0.698,0.319,0.567,0.531,�k��,5.4,��
2023/10/05,08:40,0.515,0.780,0.487,0.974,0.698,0.319,0.567,0.530,�k�k��,6.2,��
2023/10/05,08:50,0.516,0.784,0.484,0.976,0.698,0.318,0.569,0.529,�k��,3.4,��
2023/10/05,09:00,0.515,0.784,0.484,0.976,0.698,0.316,0.568,0.529,���k��,4.8,��
2023/10/05,09:10,0.517,0.782,0.486,0.976,0.699,0.318,0.567,0.529,��,5.1,��
2023/10/05,09:20,0.514,0.781,0.485,0.976,0.697,0.317,0.569,0.529,���쐼,2.2,��
2023/10/05,09:30,0.514,0.779,0.485,0.975,0.698,0.318,0.569,0.531,��쓌,4.7,��
2023/10/05,09:40,0.514,0.781,0.483,0.976,0.699,0.317,0.568,0.530,��쓌,3.1,��
2023/10/05,09:50,0.513,0.780,0.483,0.975,0.698,0.317,0.569,0.530,��,1.2,��
2023/10/05,10:00,0.514,0.781,0.486,0.976,0.697,0.317,0.568,0.528,-,CALM,��
2023/10/05,10:10,0.514,0.780,0.483,0.977,0.698,0.316,0.568,0.529,���k��,2.6,��
2023/10/05,10:20,0.514,0.782,0.485,0.975,0.697,0.317,0.570,0.532,���k��,2.6,��
2023/10/05,10:30,0.514,0.779,0.484,0.971,0.697,0.318,0.569,0.530,���k��,4.2,��
2023/10/05,10:40,0.513,0.781,0.484,0.967,0.698,0.319,0.569,0.529,��,1.5,��
2023/10/05,10:50,0.514,0.782,0.485,0.972,0.698,0.318,0.569,0.528,��,0.8,��
2023/10/05,11:00,0.515,0.780,0.483,0.974,0.696,0.319,0.569,0.530,���쐼,0.6,��
2023/10/05,11:10,0.515,0.782,0.486,0.975,0.697,0.317,0.569,0.527,��쐼,2.6,��
2023/10/05,11:20,0.515,0.782,0.484,0.977,0.698,0.318,0.570,0.528,��쐼,2.8,��
2023/10/05,11:30,0.515,0.780,0.484,0.980,0.697,0.319,0.568,0.530,��쐼,4.3,��
2023/10/05,11:40,0.514,0.781,0.485,0.976,0.699,0.318,0.568,0.528,�쐼,4.3,��
2023/10/05,11:50,0.515,0.782,0.486,0.981,0.698,0.319,0.569,0.529,��쐼,4.7,��
2023/10/05,12:00,0.516,0.782,0.486,0.979,0.699,0.318,0.570,0.529,�쐼,2.5,��
2023/10/05,12:10,0.515,0.783,0.486,0.979,0.699,0.319,0.569,0.530,��쐼,2.8,��
2023/10/05,12:20,0.517,0.784,0.486,0.981,0.700,0.319,0.569,0.529,���k��,1.5,��
2023/10/05,12:30,0.515,0.783,0.485,0.979,0.699,0.318,0.569,0.529,���k��,2.0,��
2023/10/05,12:40,0.515,0.785,0.485,0.980,0.699,0.318,0.569,0.530,���k��,1.5,��
2023/10/05,12:50,0.515,0.785,0.485,0.980,0.699,0.318,0.570,0.528,���k��,2.9,��
2023/10/05,13:00,0.515,0.783,0.485,0.981,0.699,0.318,0.569,0.528,��,5.4,��
2023/10/05,13:10,0.514,0.782,0.486,0.980,0.700,0.319,0.570,0.529,��,5.7,��
2023/10/05,13:20,0.516,0.783,0.487,0.979,0.701,0.320,0.570,0.529,���k��,6.9,��
2023/10/05,13:30,0.516,0.781,0.486,0.980,0.701,0.318,0.571,0.529,���k��,11.6,�L
2023/10/05,13:40,0.516,0.783,0.484,0.981,0.700,0.318,0.568,0.528,��,10.3,�L
2023/10/05,13:50,0.515,0.782,0.488,0.980,0.699,0.319,0.570,0.529,��,5.2,�L
2023/10/05,14:00,0.515,0.785,0.485,0.980,0.699,0.318,0.569,0.529,���k��,5.9,��
2023/10/05,14:10,0.516,0.785,0.484,0.977,0.700,0.319,0.569,0.529,���k��,5.9,��
2023/10/05,14:20,0.516,0.785,0.486,-,0.700,0.318,0.570,0.529,���k��,5.3,��
2023/10/05,14:30,0.517,0.785,0.486,-,0.701,0.318,0.569,0.530,���k��,6.9,��
2023/10/05,14:40,0.516,0.784,0.486,-,0.699,0.319,0.570,0.530,��,8.4,��
2023/10/05,14:50,0.515,0.785,0.486,-,0.700,0.319,0.570,0.530,��,9.9,��
2023/10/05,15:00,0.517,0.787,0.485,-,0.701,0.318,0.570,0.530,���k��,9.0,��
2023/10/05,15:10,0.516,0.786,0.487,-,0.701,0.319,0.570,0.530,���k��,11.6,��
2023/10/05,15:20,0.518,0.786,0.487,-,0.700,0.319,0.570,0.530,���k��,10.0,��
2023/10/05,15:30,0.518,0.787,0.487,-,0.703,0.318,0.569,0.531,���k��,12.2,��
2023/10/05,15:40,0.517,0.787,0.486,-,0.704,0.318,0.571,0.531,��,13.5,��
2023/10/05,15:50,0.517,0.785,0.487,0.982,0.704,0.320,0.569,0.532,��,11.8,��
2023/10/05,16:00,0.518,0.785,0.488,0.984,0.704,0.319,0.571,0.531,��,13.0,��
2023/10/05,16:10,0.518,0.786,0.487,0.984,0.704,0.320,0.570,0.531,��,15.2,��
2023/10/05,16:20,0.518,0.786,0.488,0.984,0.705,0.321,0.571,0.532,���k��,12.0,��
2023/10/05,16:30,0.518,0.786,0.487,0.985,0.705,0.320,0.569,0.531,��,11.8,��
2023/10/05,16:40,0.519,0.788,0.488,0.985,0.704,0.321,0.569,0.532,��,11.1,��
2023/10/05,16:50,0.518,0.786,0.486,0.984,0.703,0.319,0.569,0.532,��,9.0,��
2023/10/05,17:00,0.519,0.789,0.487,0.984,0.702,0.321,0.571,0.532,��,10.5,��
2023/10/05,17:10,0.517,0.788,0.487,0.985,0.701,0.320,0.570,0.533,���k��,13.0,��
2023/10/05,17:20,0.518,0.792,0.486,0.985,0.704,0.321,0.569,0.535,���k��,9.8,��
2023/10/05,17:30,0.517,0.791,0.486,0.986,0.703,0.321,0.570,0.535,���k��,10.8,��
2023/10/05,17:40,0.520,0.790,0.486,0.986,0.703,0.321,0.569,0.535,���k��,13.0,��
2023/10/05,17:50,0.517,0.791,0.489,0.989,0.703,0.320,0.568,0.535,���k��,12.8,��
2023/10/05,18:00,0.518,0.792,0.485,0.988,0.703,0.319,0.569,0.535,���k��,13.8,��
2023/10/05,18:10,0.520,0.791,0.487,0.989,0.706,0.320,0.568,0.536,���k��,11.6,��
2023/10/05,18:20,0.519,0.790,0.487,0.990,0.704,0.320,0.569,0.536,��,12.8,��
2023/10/05,18:30,0.519,0.792,0.488,0.989,0.703,0.320,0.568,0.536,��,9.2,��
2023/10/05,18:40,0.520,0.791,0.487,0.987,0.704,0.321,0.568,0.535,���k��,9.1,��
2023/10/05,18:50,0.521,0.792,0.488,0.990,0.704,0.319,0.569,0.535,��,7.7,��
2023/10/05,19:00,0.520,0.792,0.489,0.989,0.704,0.319,0.569,0.534,��,9.1,��
2023/10/05,19:10,0.522,0.792,0.490,0.992,0.706,0.320,0.570,0.535,��,8.7,��
2023/10/05,19:20,0.522,0.791,0.488,0.990,0.704,0.320,0.568,0.536,��,8.7,��
2023/10/05,19:30,0.521,0.791,0.490,0.990,0.707,0.320,0.569,0.535,��,7.2,��
2023/10/05,19:40,0.521,0.791,0.488,0.988,0.706,0.320,0.568,0.535,���쐼,6.1,��
2023/10/05,19:50,0.521,0.793,0.490,0.989,0.709,0.323,0.570,0.534,���쐼,5.5,��
2023/10/05,20:00,0.521,0.789,0.491,0.988,0.707,0.321,0.569,0.535,��,6.1,��
2023/10/05,20:10,0.519,0.791,0.490,0.989,0.707,0.321,0.569,0.533,��,5.7,��
2023/10/05,20:20,0.521,0.792,0.489,0.990,0.706,0.319,0.570,0.534,���k��,7.9,��
2023/10/05,20:30,0.520,0.793,0.489,0.992,0.707,0.321,0.571,0.535,���k��,7.3,��
2023/10/05,20:40,0.521,0.793,0.488,0.990,0.707,0.321,0.571,0.534,���k��,6.3,��
2023/10/05,20:50,0.520,0.794,0.490,0.990,0.708,0.321,0.571,0.535,��,5.6,��
2023/10/05,21:00,0.520,0.792,0.489,0.990,0.707,0.321,0.570,0.534,��,4.9,��
2023/10/05,21:10,0.521,0.791,0.489,0.989,0.707,0.320,0.570,0.534,���k��,3.8,��
2023/10/05,21:20,0.520,0.790,0.489,0.990,0.708,0.321,0.572,0.532,�k,1.7,��
2023/10/05,21:30,0.520,0.791,0.489,0.991,0.708,0.322,0.571,0.531,��,0.8,��
2023/10/05,21:40,0.520,0.790,0.489,0.990,0.706,0.322,0.571,0.534,��,3.2,��
2023/10/05,21:50,0.521,0.792,0.487,0.992,0.707,0.321,0.570,0.531,��,4.0,��
2023/10/05,22:00,0.518,0.792,0.489,0.989,0.708,0.320,0.571,0.532,���쐼,4.1,��
2023/10/05,22:10,0.521,0.790,0.488,0.989,0.706,0.319,0.572,0.532,��,3.8,��
2023/10/05,22:20,0.519,0.791,0.489,0.989,0.707,0.320,0.571,0.532,��,4.2,��
2023/10/05,22:30,0.521,0.791,0.488,0.990,0.707,0.319,0.571,0.532,��,2.5,��
2023/10/05,22:40,0.520,0.790,0.490,0.988,0.707,0.321,0.571,0.532,���쐼,2.0,��
2023/10/05,22:50,0.520,0.790,0.488,0.988,0.707,0.320,0.572,0.532,���쐼,1.1,��
2023/10/05,23:00,0.521,0.791,0.488,0.988,0.706,0.321,0.572,0.532,�쐼,2.0,��
2023/10/05,23:10,0.520,0.792,0.488,0.990,0.706,0.320,0.570,0.531,�쐼,3.1,��
2023/10/05,23:20,0.520,0.791,0.489,0.987,0.707,0.321,0.571,0.532,�쐼,3.0,��
2023/10/05,23:30,0.520,0.790,0.489,0.988,0.707,0.319,0.570,0.531,�쐼,2.9,��
2023/10/05,23:40,0.521,0.791,0.488,0.988,0.707,0.320,0.571,0.530,��쐼,3.7,��
2023/10/05,23:50,0.520,0.790,0.488,0.989,0.706,0.320,0.571,0.531,��쐼,3.2,��
